Location: Arrien
(43.3167°N, 0.1500°W)
Time: 12:41:46
(UTC+00:00)

Cosmos 1544 Rocket - Pass Details

Date: 03 June 2022
Orbit: 603 x 631 km, 82.5° (Epoch: 03 July)

Event Time Altitude Azimuth Distance (km) Brightness Sun altitude
Rises 00:03:31 0° 2° (N) 2,901 8.4 -24.4°
Reaches altitude 10° 00:06:01 10° 14° (NNE) 1,985 7.2 -24.4°
Maximum altitude 00:09:49 28° 74° (ENE) 1,156 5.1 -24.3°
Enters shadow 00:10:34 27° 92° (E) 1,196 5.0 -24.3°
